Wind_Speed
86 83 81 74 73 69 61 58 53 55 68 76 81 89 81 79 74 71 77 72 70 63 69 66 64 57 57 53 54 52 50 49 51 43 39 48 53 51 52 49 46 34 27 25 23
87 84 80 74 71 68 65 59 56 62 74 83 80 94 90 86 79 76 76 78 76 73 70 68 67 63 61 58 59 56 49 51 47 48 52 53 53 47 50 51 50 38 31 27 25
83 80 77 76 73 68 63 63 62 70 79 88 84 93 96 92 89 84 78 82 75 72 70 70 67 67 67 67 58 58 55 56 54 54 54 53 47 48 51 54 52 42 33 29 26
79 79 74 75 73 69 67 69 69 75 81 88 89 87 91 91 92 88 84 79 79 80 72 68 72 69 68 69 64 56 62 58 58 59 57 50 42 46 54 54 52 41 36 30 29
75 74 75 75 72 72 70 74 75 81 83 89 98 89 90 87 87 92 84 84 87 83 91 84 77 72 71 68 65 63 62 62 61 57 53 52 48 50 47 51 45 38 36 33 30
73 72 76 73 74 76 73 77 78 85 85 90 97 97 93 88 85 89 86 79 81 76 78 79 74 75 74 71 71 69 66 62 62 61 55 50 49 47 44 49 44 36 35 31 32
74 73 76 77 78 79 76 80 81 86 88 89 98 101 95 95 89 86 91 89 85 81 84 83 83 80 76 78 76 72 70 68 63 61 55 49 49 48 47 48 43 36 37 32 31
73 73 76 77 80 82 80 82 80 87 89 89 93 99 102 99 96 90 84 93 91 84 79 81 79 81 74 72 73 75 72 71 69 64 55 50 54 53 52 49 42 39 37 35 34
70 72 76 79 83 84 84 84 84 90 90 85 89 93 96 100 98 97 95 87 88 88 82 86 81 78 79 76 75 72 69 73 71 61 58 54 54 55 50 47 44 42 41 39 37
67 71 74 79 82 86 84 87 87 89 94 84 85 92 92 92 97 94 94 97 93 88 87 82 81 81 84 82 82 84 80 72 65 62 55 53 58 59 51 48 47 44 45 43 42
61 66 73 77 82 86 86 87 88 88 92 85 76 84 90 90 94 94 93 94 96 98 94 92 82 79 81 82 82 77 74 73 67 62 59 57 60 57 53 50 49 49 49 47 47
61 65 70 73 83 84 87 85 85 88 92 86 86 77 92 90 93 92 93 88 91 89 94 92 87 86 87 83 82 78 78 74 70 68 66 65 60 57 54 52 53 52 52 51 48
61 66 70 76 80 82 84 83 84 88 95 93 82 81 78 95 92 90 92 94 90 90 88 88 88 90 87 85 82 81 78 78 75 72 71 69 61 60 57 56 56 56 54 53 51
59 65 68 73 74 74 76 82 85 89 99 98 88 84 77 86 88 91 89 89 92 87 89 90 89 88 86 86 85 83 82 81 80 77 71 67 58 61 62 59 58 59 57 55 54
57 63 69 68 68 64 72 77 84 90 98 102 95 89 86 83 85 82 90 92 89 89 88 86 88 87 87 85 85 83 82 81 79 76 71 65 61 63 66 63 60 61 60 58 57
56 57 65 66 68 69 73 73 84 95 91 91 93 93 81 77 81 84 83 75 91 95 91 89 89 87 85 86 84 83 83 83 80 76 69 66 67 58 68 69 63 63 62 62 60
56 59 64 68 71 71 74 75 86 87 86 90 89 90 88 84 84 87 87 82 79 77 83 91 90 86 85 86 85 83 83 84 82 78 69 68 70 60 67 68 69 67 64 64 64
63 64 67 72 74 73 74 76 81 81 80 88 90 93 95 90 88 93 92 90 87 84 82 77 88 90 90 90 89 89 89 87 82 77 73 69 67 68 67 67 71 72 70 69 67
59 67 67 72 74 79 81 80 75 77 87 88 90 91 97 93 90 93 92 92 91 84 86 90 89 77 88 88 89 90 85 87 85 80 77 73 70 71 72 71 71 72 74 74 73
59 74 70 71 78 80 83 81 78 78 80 84 87 84 95 98 93 95 94 91 91 88 87 87 90 92 91 91 94 87 89 88 85 82 79 74 76 76 77 74 73 73 73 73 74
63 71 74 79 79 87 86 87 84 83 89 91 92 91 88 99 99 94 92 93 94 92 94 92 93 92 93 93 89 91 90 89 95 89 83 79 78 80 77 74 74 74 74 74 75
71 74 75 82 89 89 88 89 90 89 89 92 94 95 92 92 94 102 96 96 100 97 93 94 96 95 95 95 94 90 90 94 94 87 88 85 84 80 77 80 80 82 83 83 83
79 84 81 78 83 90 90 91 90 89 86 90 92 93 95 100 96 97 102 99 96 98 104 100 99 97 96 95 93 91 93 95 96 95 92 93 88 85 86 88 88 88 86 86 86
87 89 91 87 83 82 85 86 84 80 80 80 82 83 83 84 88 100 99 98 98 101 99 105 109 106 100 95 96 95 94 97 101 99 92 91 93 94 90 91 91 90 91 92 92
92 94 94 91 92 87 86 85 84 81 82 79 77 76 76 78 80 83 84 87 93 100 98 102 104 108 111 110 104 98 98 97 95 94 94 89 95 97 96 95 93 94 95 96 95
95 97 96 97 98 95 91 86 85 84 86 82 80 81 81 80 82 82 79 79 79 83 93 103 104 104 104 104 107 110 103 102 98 94 92 92 94 98 99 99 98 96 96 96 98
100 100 100 100 101 101 95 95 94 91 88 86 87 86 82 82 85 86 83 81 83 85 87 87 88 90 93 95 100 103 100 108 105 101 102 100 98 99 99 99 100 100 99 99 99
Wind_Direction
250 249 249 248 245 248 247 239 232 215 208 201 211 209 208 213 215 221 224 226 226 232 231 235 240 236 244 248 248 254 257 261 258 256 265 279 288 288 289 295 303 305 291 281 276
247 247 246 245 246 244 242 239 223 208 206 198 210 209 211 213 214 219 221 227 229 231 233 237 238 240 239 244 248 247 256 257 256 265 269 278 280 282 288 294 302 306 288 280 273
244 242 241 242 241 239 236 226 217 204 204 202 208 210 212 214 217 217 222 222 227 229 231 233 236 235 239 241 246 249 252 256 255 264 268 275 272 280 291 297 302 300 285 279 277
237 237 236 237 235 234 227 216 214 204 203 204 204 209 212 213 218 222 219 222 229 229 232 235 236 235 239 243 248 250 250 253 254 262 268 269 269 281 289 296 301 294 283 277 274
229 232 233 231 229 229 219 213 210 206 205 206 203 206 210 212 215 220 222 224 226 231 234 232 232 235 240 243 246 248 250 255 252 264 260 268 267 279 289 295 293 284 278 279 277
226 225 227 225 224 224 217 211 211 207 204 207 205 206 208 211 214 218 219 221 219 222 224 227 233 235 238 242 246 248 252 254 255 257 260 263 271 276 289 291 287 276 271 274 280
225 221 222 222 221 219 215 211 212 208 203 208 208 209 207 209 211 216 218 218 221 225 228 232 234 238 241 244 248 252 250 251 252 256 257 263 268 276 284 285 279 270 270 269 272
221 217 218 218 218 216 216 212 213 209 206 207 211 210 211 210 210 211 213 220 224 225 228 230 232 238 239 239 245 247 246 252 252 254 257 261 265 274 281 278 273 271 270 271 271
219 217 215 215 216 215 214 213 214 212 208 208 212 212 213 214 213 214 215 215 219 224 227 228 228 230 235 240 243 247 247 249 252 252 260 260 265 272 272 268 267 268 268 269 272
217 216 215 213 215 216 213 212 212 212 207 208 214 215 213 219 217 216 218 221 220 221 223 228 229 232 238 241 243 243 244 248 250 253 253 257 266 270 268 265 264 264 267 268 269
214 217 217 214 215 215 213 213 211 212 211 207 212 217 217 220 221 220 220 222 223 225 228 228 231 232 233 236 240 244 247 250 248 252 254 260 267 265 265 261 262 264 262 264 266
214 212 215 215 214 214 214 213 213 211 210 207 211 214 218 220 221 221 222 223 225 227 228 230 234 234 236 239 240 242 244 248 249 251 255 260 262 261 262 262 261 260 262 262 266
215 214 213 215 216 215 215 215 214 213 209 205 210 214 217 219 222 224 224 224 225 227 229 232 234 235 237 239 242 242 243 247 248 251 254 258 258 259 260 258 260 261 261 261 265
217 216 214 215 216 214 215 218 213 214 213 208 205 213 219 220 223 224 227 228 228 228 230 233 235 237 239 241 244 246 248 249 249 250 252 255 254 257 258 257 257 259 261 261 261
217 215 214 211 211 211 215 218 217 213 215 211 209 207 215 219 225 222 229 229 231 231 232 233 236 237 238 240 242 245 248 250 250 251 251 253 251 254 256 256 255 257 259 260 262
219 215 211 210 209 211 214 215 216 217 213 213 213 212 214 221 220 225 224 231 234 234 234 235 238 239 242 243 244 247 249 250 251 251 250 251 252 246 253 256 255 256 258 260 262
214 213 210 209 206 210 214 216 218 217 214 213 215 217 216 221 220 222 221 225 227 235 240 239 237 239 240 243 246 246 247 249 249 250 247 247 250 245 249 253 257 257 255 256 260
210 210 208 205 208 213 216 217 219 212 219 216 215 217 220 221 222 225 225 223 223 227 226 232 237 237 238 241 242 243 244 247 250 250 251 248 248 249 247 247 252 257 259 260 259
222 222 211 209 209 212 213 216 219 217 216 217 217 216 219 221 226 227 227 231 228 228 234 234 229 234 240 243 245 247 248 249 249 248 248 248 248 248 249 248 248 251 257 260 262
221 220 212 213 206 211 217 217 219 219 217 216 215 221 225 222 224 227 230 231 232 232 234 234 235 234 231 233 235 244 247 249 253 251 251 250 250 249 250 251 252 252 253 257 260
225 217 213 213 210 215 217 219 219 221 219 219 219 220 223 225 224 227 229 233 232 235 235 236 238 237 237 236 239 240 238 241 245 245 248 249 251 252 254 255 255 257 257 257 257
222 210 212 213 212 216 224 223 220 222 224 223 223 224 226 225 228 228 231 232 234 234 236 239 240 240 240 240 240 242 243 246 246 245 248 246 244 251 255 256 257 257 256 257 258
219 208 211 213 215 217 220 225 226 226 228 230 229 228 229 229 231 231 230 232 234 238 237 237 239 240 241 243 244 246 247 249 249 247 246 249 250 246 247 251 253 254 257 259 260
215 213 212 213 216 221 219 222 224 225 225 230 230 230 229 232 232 233 233 233 236 238 241 242 242 242 242 242 244 245 247 249 249 248 251 251 253 254 250 251 253 254 257 258 260
214 212 212 215 217 220 224 224 225 224 221 225 227 231 233 231 231 230 231 234 237 236 240 243 244 245 245 244 243 246 247 250 251 253 254 255 256 258 257 257 255 255 255 257 260
216 213 216 215 219 219 222 224 229 229 224 226 228 230 233 236 236 232 235 238 236 238 240 242 244 246 246 247 247 245 246 249 251 253 255 256 258 261 261 260 259 260 259 259 261
219 218 218 217 218 222 221 223 225 226 229 229 228 230 234 236 238 240 238 237 238 242 242 244 246 247 249 250 250 249 249 248 249 250 252 253 256 259 262 263 263 263 264 265 266
Height
10598 10608 10618 10629 10639 10648 10657 10666 10674 10682 10692 10704 10714 10723 10734 10742 10750 10758 10764 10770 10775 10783 10788 10795 10800 10804 10808 10813 10815 10819 10824 10825 10825 10829 10830 10828 10828 10828 10826 10826 10828 10828 10826 10823 10820
10579 10589 10600 10610 10619 10631 10642 10651 10659 10668 10680 10691 10703 10711 10721 10728 10738 10744 10753 10761 10767 10774 10779 10786 10791 10796 10800 10804 10806 10812 10818 10817 10818 10824 10823 10823 10823 10821 10821 10822 10822 10824 10822 10819 10817
10560 10571 10582 10592 10603 10616 10626 10636 10645 10652 10666 10677 10689 10697 10704 10715 10723 10732 10740 10751 10755 10764 10770 10775 10781 10787 10791 10795 10799 10806 10811 10810 10812 10815 10816 10818 10816 10814 10816 10816 10816 10817 10817 10815 10812
10542 10553 10564 10575 10586 10598 10610 10621 10631 10639 10650 10662 10675 10685 10692 10703 10713 10721 10730 10739 10743 10752 10758 10765 10772 10777 10781 10788 10792 10798 10801 10802 10805 10806 10810 10811 10810 10809 10811 10811 10811 10809 10809 10810 10808
10524 10535 10548 10558 10569 10581 10594 10605 10616 10626 10636 10649 10660 10672 10682 10690 10700 10709 10717 10727 10733 10740 10745 10754 10761 10766 10773 10779 10782 10786 10790 10791 10798 10801 10802 10805 10803 10805 10808 10805 10806 10805 10801 10802 10802
10504 10518 10530 10540 10553 10565 10577 10589 10601 10612 10620 10634 10645 10659 10670 10677 10686 10698 10707 10716 10723 10730 10734 10743 10749 10754 10762 10767 10771 10775 10781 10786 10791 10793 10794 10796 10795 10798 10803 10797 10800 10799 10797 10796 10794
10485 10500 10511 10523 10536 10548 10560 10574 10585 10596 10605 10620 10630 10643 10655 10665 10677 10685 10695 10705 10712 10719 10724 10729 10737 10743 10750 10756 10762 10768 10773 10777 10781 10786 10786 10789 10787 10792 10794 10793 10792 10793 10790 10790 10789
10469 10483 10495 10506 10519 10532 10544 10558 10570 10581 10592 10605 10618 10629 10641 10651 10664 10673 10681 10692 10699 10706 10713 10720 10728 10734 10740 10746 10751 10759 10764 10767 10771 10775 10779 10781 10779 10783 10788 10788 10787 10785 10783 10782 10782
10455 10467 10479 10492 10503 10516 10528 10541 10554 10568 10579 10591 10605 10617 10628 10640 10649 10659 10670 10677 10685 10694 10703 10710 10718 10723 10728 10736 10742 10750 10754 10754 10760 10768 10771 10774 10771 10775 10779 10780 10780 10777 10775 10775 10774
10443 10454 10466 10477 10489 10501 10513 10527 10539 10553 10566 10579 10592 10605 10623 10630 10635 10642 10652 10663 10672 10680 10691 10699 10706 10713 10719 10728 10733 10731 10737 10747 10753 10758 10762 10763 10760 10766 10770 10772 10771 10770 10767 10766 10766
10432 10442 10454 10465 10476 10488 10501 10514 10529 10545 10563 10573 10585 10598 10607 10613 10622 10630 10639 10649 10658 10669 10678 10686 10694 10703 10702 10706 10715 10725 10732 10738 10743 10746 10750 10753 10755 10757 10760 10762 10761 10759 10758 10757 10756
10420 10430 10441 10453 10464 10475 10491 10507 10520 10531 10541 10550 10567 10581 10591 10598 10608 10617 10627 10636 10647 10655 10662 10673 10685 10682 10689 10698 10706 10713 10720 10724 10731 10736 10740 10744 10747 10747 10749 10752 10748 10748 10747 10748 10749
10412 10420 10430 10440 10453 10470 10482 10492 10504 10515 10522 10534 10549 10564 10573 10584 10593 10607 10615 10624 10632 10639 10650 10661 10664 10668 10680 10688 10695 10702 10709 10710 10716 10723 10728 10733 10740 10736 10738 10738 10737 10737 10737 10738 10739
10403 10411 10421 10432 10448 10458 10472 10481 10489 10499 10506 10522 10533 10551 10564 10571 10581 10594 10603 10613 10623 10632 10637 10646 10654 10661 10669 10678 10682 10688 10691 10694 10700 10708 10718 10723 10732 10726 10722 10725 10727 10724 10725 10726 10728
10391 10400 10412 10427 10437 10452 10457 10466 10475 10479 10490 10508 10522 10534 10544 10558 10576 10579 10592 10601 10613 10617 10625 10639 10640 10645 10653 10659 10663 10672 10677 10682 10688 10695 10704 10713 10717 10713 10708 10710 10713 10712 10713 10715 10716
10382 10393 10403 10417 10429 10437 10442 10452 10456 10459 10484 10500 10512 10526 10533 10549 10557 10564 10574 10584 10595 10599 10613 10620 10627 10634 10643 10647 10653 10660 10663 10666 10672 10680 10692 10697 10698 10710 10695 10692 10700 10702 10702 10702 10704
10373 10382 10394 10407 10419 10423 10432 10437 10437 10459 10477 10493 10507 10517 10521 10530 10541 10545 10555 10568 10575 10588 10603 10612 10615 10620 10627 10630 10635 10644 10646 10648 10655 10663 10681 10680 10681 10696 10686 10686 10682 10684 10689 10690 10692
10364 10371 10383 10396 10405 10413 10417 10423 10428 10456 10465 10480 10491 10497 10508 10516 10523 10532 10539 10547 10558 10570 10575 10583 10595 10604 10610 10613 10617 10616 10621 10630 10642 10652 10662 10667 10672 10674 10676 10677 10673 10669 10671 10675 10678
10354 10363 10374 10384 10393 10398 10401 10406 10426 10445 10451 10464 10472 10481 10493 10501 10513 10522 10529 10538 10548 10558 10561 10569 10574 10582 10592 10596 10598 10611 10618 10619 10623 10634 10642 10650 10657 10658 10659 10660 10663 10663 10659 10660 10661
10343 10352 10362 10372 10381 10384 10386 10399 10414 10427 10436 10446 10458 10467 10478 10487 10494 10503 10512 10530 10538 10546 10548 10555 10558 10569 10567 10570 10575 10594 10601 10603 10610 10620 10628 10637 10637 10638 10638 10646 10647 10649 10649 10650 10650
10329 10338 10348 10359 10367 10370 10373 10387 10401 10410 10421 10433 10444 10453 10461 10471 10481 10492 10504 10512 10520 10527 10529 10535 10544 10553 10555 10566 10571 10573 10580 10581 10584 10595 10607 10618 10620 10620 10625 10628 10630 10631 10633 10634 10635
10315 10325 10332 10341 10349 10356 10361 10373 10386 10396 10407 10418 10429 10439 10447 10456 10466 10477 10491 10496 10502 10507 10514 10522 10527 10534 10545 10550 10554 10560 10569 10570 10572 10585 10586 10592 10594 10607 10609 10607 10608 10610 10612 10614 10616
10300 10311 10317 10323 10333 10343 10351 10359 10371 10382 10393 10402 10413 10422 10432 10439 10449 10458 10468 10478 10487 10490 10497 10507 10510 10517 10526 10535 10547 10551 10554 10555 10557 10559 10568 10571 10579 10584 10582 10584 10585 10589 10594 10597 10599
10282 10293 10302 10310 10320 10328 10339 10347 10356 10368 10378 10387 10397 10407 10415 10423 10432 10441 10451 10462 10469 10475 10479 10480 10488 10497 10512 10521 10522 10526 10532 10534 10537 10544 10557 10559 10557 10560 10564 10564 10570 10576 10578 10577 10577
10262 10277 10287 10296 10306 10315 10321 10332 10342 10354 10364 10373 10382 10391 10398 10406 10413 10423 10432 10441 10448 10456 10459 10463 10470 10477 10487 10497 10503 10512 10516 10518 10523 10531 10531 10542 10537 10535 10541 10545 10549 10551 10554 10554 10555
10245 10259 10270 10281 10283 10293 10304 10319 10328 10337 10348 10359 10368 10373 10380 10389 10396 10406 10416 10422 10428 10434 10439 10446 10451 10455 10462 10470 10479 10489 10494 10501 10508 10513 10519 10521 10519 10512 10516 10520 10524 10528 10529 10529 10530
10223 10238 10249 10261 10267 10275 10294 10303 10310 10317 10328 10340 10350 10357 10367 10374 10379 10385 10396 10405 10411 10415 10420 10426 10432 10437 10442 10447 10454 10466 10481 10482 10486 10490 10493 10500 10503 10497 10495 10494 10499 10502 10504 10506 10507